[[{"header":{"parameterUnit":"m.s-1","parameterCategory":1,"la1":30.2991,"la2":30.254,"lo1":-89.0895,"lo2":-89.0444,"dy":0.0017,"dx":0.0017,"nx":28,"ny":28,"refTime":"2025-06-05T09:00:00:Z","depth":0,"parameterNumber":2,"parameterNumberName":"U-component_of_WINDS"},"data":[0,0,0,0,0,0,0,0,0,0,0,0,0,0,0,0,0,0,0,0,0,0,0,0,0,0,0,0,0,0,0,0,0,0,0,0,0,0,0,0,0,0,0,0,0,0,0,0,0,0,0,0,0,0,0,0,0,0,-0.6412,-0.6411,0,-0.6348,-0.6347,-0.6347,-0.6284,-0.6283,-0.6282,-0.6282,-0.6215,-0.6214,-0.6213,0,0,0,0,0,0,0,0,0,0,0,0,0,-0.6479,-0.6478,-0.6412,-0.6411,-0.6411,-0.6348,-0.6347,-0.6346,-0.6284,-0.6283,-0.6282,-0.6281,-0.6216,-0.6215,-0.6213,0,0,0,0,0,0,0,0,0,0,0,0,0,-0.6436,-0.6478,-0.6412,-0.6372,-0.6368,-0.6348,-0.6347,-0.6346,-0.6284,-0.6283,-0.6282,-0.6281,-0.6216,-0.6215,-0.6213,-0.6228,0,0,-0.6209,-0.6208,0,0,0,0,0,0,0,0,-0.6439,-0.6434,-0.6379,-0.6375,-0.637,-0.6323,-0.6347,-0.6307,-0.6285,-0.6316,-0.6282,-0.628,-0.6252,-0.6248,-0.6238,-0.6225,-0.6223,-0.6209,-0.6208,-0.6207,-0.6207,0,0,0,0,0,0,0,-0.6442,-0.6436,-0.6387,-0.6378,-0.6373,-0.6357,-0.6349,-0.6339,-0.6292,-0.6313,-0.6308,-0.6302,-0.6249,-0.624,-0.6236,-0.6222,-0.6209,-0.6207,-0.6206,-0.6206,-0.6216,-0.6217,0,0,0,0,0,0,-0.6451,-0.6439,-0.6389,-0.6385,-0.6402,-0.6356,-0.6348,-0.6339,-0.6292,-0.6283,-0.6303,-0.6299,-0.6243,-0.6238,-0.6234,-0.6246,-0.6207,-0.6206,-0.6205,-0.6215,-0.6216,-0.6217,0,0,0,0,0,0,-0.6453,-0.6447,-0.6391,-0.6411,-0.6402,-0.6357,-0.6347,-0.6339,-0.6329,-0.6284,-0.6275,-0.6302,-0.6242,-0.6236,-0.623,-0.6243,-0.6205,-0.6204,-0.6213,-0.6215,-0.6217,-0.6274,0,0,0,0,0,0,-0.6455,-0.6448,-0.6454,-0.6411,-0.6402,-0.6389,-0.6348,-0.6338,-0.6326,-0.6321,-0.628,-0.6273,-0.624,-0.6232,-0.6228,-0.6241,-0.6202,-0.6212,-0.6214,-0.6216,-0.627,-0.6277,-0.6283,0,0,0,0,0,-0.6457,-0.6473,-0.6454,-0.6449,-0.6408,-0.639,-0.6384,-0.6347,-0.6328,-0.6333,-0.6304,-0.6274,-0.6243,-0.6232,-0.6227,-0.6239,-0.6211,-0.6214,-0.6216,-0.6267,-0.6276,-0.6283,0,0,0,0,0,0,-0.6518,-0.6466,-0.6445,-0.6447,-0.6424,-0.638,-0.6384,-0.6358,-0.6339,-0.6334,-0.6289,-0.628,-0.6279,-0.6259,-0.6248,-0.6251,-0.6223,-0.6224,-0.6264,-0.6271,-0.6277,-0.6281,-0.6201,0,0,0,0,0,-0.6531,-0.6522,-0.6477,-0.6483,-0.6472,-0.6431,-0.6422,-0.6395,-0.6369,-0.6358,-0.6329,-0.6304,-0.6288,-0.6279,-0.6262,-0.6268,-0.6257,-0.6274,-0.628,-0.6285,-0.6287,-0.6286,-0.6292,-0.6226,-0.6226,-0.6226,0,0,-0.6559,-0.653,-0.6526,-0.6494,-0.6473,-0.6463,-0.6423,-0.6414,-0.6406,-0.6357,-0.6348,-0.6327,-0.6296,-0.6295,-0.6293,-0.6278,-0.6303,-0.6289,-0.6293,-0.6292,-0.629,-0.6296,-0.6301,-0.6228,-0.6228,-0.6227,0,0,-0.6604,-0.6582,-0.6583,-0.6563,-0.653,-0.6503,-0.6503,-0.6463,-0.6446,-0.6438,-0.64,-0.639,-0.6364,-0.6343,-0.6329,-0.6366,-0.6337,-0.6362,-0.6395,-0.6395,-0.64,-0.6404,-0.6415,-0.642,-0.6364,-0.6364,-0.6364,0,-0.6643,-0.6627,-0.6588,-0.6581,-0.6568,-0.6523,-0.6523,-0.6505,-0.6469,-0.646,-0.6444,-0.641,-0.6387,-0.6379,-0.6388,-0.6379,-0.6377,-0.6366,-0.6402,-0.6406,-0.641,-0.642,-0.6424,-0.6367,-0.6367,-0.6367,-0.6366,0,-0.6674,-0.6664,-0.6669,-0.6635,-0.6622,-0.662,-0.658,-0.6571,-0.6546,-0.652,-0.6511,-0.6481,-0.6457,-0.6453,-0.6429,-0.6442,-0.6434,-0.6411,-0.6381,-0.642,-0.6428,-0.6432,-0.6372,-0.6371,-0.637,-0.6369,0,0,-0.6755,-0.6699,-0.6701,-0.6685,-0.6646,-0.6637,-0.6632,-0.6608,-0.6601,-0.6578,-0.6571,-0.6551,-0.6529,-0.6513,-0.6486,-0.6486,-0.6515,-0.6463,-0.6461,-0.6472,-0.6525,-0.6542,-0.6547,-0.6496,-0.6497,-0.6497,-0.6527,0,-0.6791,-0.6779,-0.6744,-0.6742,-0.6731,-0.6688,-0.6684,-0.6659,-0.6635,-0.6621,-0.6594,-0.6579,-0.6553,-0.6542,-0.6541,-0.6512,-0.6525,-0.6509,-0.6488,-0.6488,-0.6495,-0.6551,-0.6569,-0.6598,-0.6531,-0.6531,-0.6532,0,-0.6832,-0.6811,-0.6809,-0.6769,-0.6763,-0.676,-0.6734,-0.6723,-0.6693,-0.6675,-0.6658,-0.6627,-0.6619,-0.6593,-0.658,-0.657,-0.6559,-0.6544,-0.6544,-0.6539,-0.6511,-0.6546,-0.6607,-0.6611,-0.6537,-0.6537,-0.6536,0,-0.6888,-0.686,-0.6854,-0.6841,-0.6796,-0.6794,-0.6775,-0.6744,-0.6732,-0.671,-0.6701,-0.6679,-0.6666,-0.6649,-0.6613,-0.6598,-0.6603,-0.6575,-0.6586,-0.6587,-0.6588,-0.6588,-0.6646,-0.6585,-0.6585,-0.6585,-0.6585,0,-0.6932,-0.6931,-0.6878,-0.6874,-0.6872,-0.6832,-0.6831,-0.6807,-0.6781,-0.6771,-0.6734,-0.6725,-0.6679,-0.6665,-0.6638,-0.6629,-0.6625,-0.6609,-0.6601,-0.6611,-0.6613,-0.6602,-0.6598,-0.6586,-0.6586,-0.6586,-0.6585,0,-0.6993,-0.6958,-0.6948,-0.6906,-0.6895,-0.6895,-0.6858,-0.6853,-0.6826,-0.6814,-0.6809,-0.6767,-0.6749,-0.6712,-0.6684,-0.6665,-0.6662,-0.665,-0.6672,-0.6667,-0.668,-0.6678,-0.6731,-0.6735,-0.6674,-0.6675,-0.6675,0,-0.7022,-0.702,-0.6978,-0.6968,-0.6951,-0.6937,-0.6924,-0.6884,-0.6872,-0.6838,-0.6836,-0.6815,-0.6795,-0.6768,-0.6735,-0.6712,-0.6698,-0.6718,-0.6694,-0.6704,-0.6695,-0.6695,-0.6694,-0.6723,-0.6724,-0.6724,-0.6725,0,-0.7076,-0.7059,-0.7042,-0.7018,-0.7004,-0.6983,-0.6961,-0.6955,-0.691,-0.6899,-0.6879,-0.6864,-0.6835,-0.6814,-0.6787,-0.6766,-0.6737,-0.6733,-0.6734,-0.6743,-0.6755,-0.6746,-0.6684,-0.6731,-0.6731,-0.673,-0.673,-0.673,-0.7121,-0.7117,-0.7085,-0.7067,-0.7046,-0.7026,-0.7018,-0.699,-0.6974,-0.6947,-0.6924,-0.6907,-0.6876,-0.6837,-0.6818,-0.6803,-0.6789,-0.6792,-0.6792,-0.6792,-0.6796,-0.6759,-0.6798,-0.6798,-0.6798,-0.6798,-0.6798,0,-0.7171,-0.7149,-0.7133,-0.7102,-0.7088,-0.7063,-0.7037,-0.7026,-0.7011,-0.6985,-0.6967,-0.6944,-0.6923,-0.6888,-0.6864,-0.6859,-0.6845,-0.6854,-0.6853,-0.6848,-0.681,-0.6811,-0.6865,-0.6865,-0.6865,-0.6865,-0.6865,-0.6865,-0.7195,-0.7186,-0.7165,-0.7146,-0.7123,-0.7106,-0.7092,-0.7073,-0.7052,-0.7029,-0.7011,-0.6989,-0.6959,-0.6932,-0.6912,-0.6902,-0.6894,-0.6906,-0.6892,-0.6857,-0.6851,-0.6845,-0.6845,-0.6906,-0.6906,-0.6931,-0.6931,-0.6931]},{"header":{"parameterUnit":"m.s-1","parameterCategory":1,"la1":30.2991,"la2":30.254,"lo1":-89.0895,"lo2":-89.0444,"dy":0.0017,"dx":0.0017,"nx":28,"ny":28,"refTime":"2025-06-05T09:00:00:Z","depth":0,"parameterNumber":3,"parameterNumberName":"V-component_of_WINDS"},"data":[0,0,0,0,0,0,0,0,0,0,0,0,0,0,0,0,0,0,0,0,0,0,0,0,0,0,0,0,0,0,0,0,0,0,0,0,0,0,0,0,0,0,0,0,0,0,0,0,0,0,0,0,0,0,0,0,0,0,2.2498,2.2498,0,2.2523,2.2524,2.2524,2.259,2.2592,2.2593,2.2594,2.2618,2.2618,2.2617,0,0,0,0,0,0,0,0,0,0,0,0,0,2.2505,2.2505,2.2498,2.2498,2.2499,2.2523,2.2524,2.2524,2.259,2.2592,2.2594,2.2595,2.2619,2.2618,2.2617,0,0,0,0,0,0,0,0,0,0,0,0,0,2.2513,2.2505,2.2498,2.2535,2.2538,2.2523,2.2524,2.2524,2.259,2.2592,2.2594,2.2596,2.2619,2.2618,2.2617,2.2568,0,0,2.2614,2.2613,0,0,0,0,0,0,0,0,2.2513,2.2513,2.2529,2.2532,2.2536,2.2556,2.2535,2.2539,2.2589,2.257,2.2595,2.2597,2.2596,2.2597,2.2597,2.2569,2.257,2.2614,2.2613,2.2613,2.2612,0,0,0,0,0,0,0,2.2512,2.2512,2.2508,2.2529,2.2533,2.2549,2.2553,2.2536,2.2571,2.2572,2.2577,2.2579,2.2598,2.2598,2.2598,2.257,2.2614,2.2613,2.2612,2.2612,2.2505,2.2503,0,0,0,0,0,0,2.2507,2.2511,2.2507,2.2509,2.253,2.2547,2.2551,2.2547,2.2571,2.2577,2.2577,2.2582,2.2598,2.2599,2.2599,2.2543,2.2613,2.2612,2.2611,2.2507,2.2504,2.2502,0,0,0,0,0,0,2.2507,2.2506,2.2506,2.2511,2.2513,2.2545,2.254,2.2547,2.2546,2.2575,2.2581,2.257,2.26,2.26,2.2575,2.2545,2.2611,2.261,2.2509,2.2506,2.2503,2.2431,0,0,0,0,0,0,2.2506,2.2505,2.2487,2.2511,2.2512,2.2482,2.2538,2.2546,2.2545,2.2551,2.257,2.2575,2.2602,2.2577,2.2574,2.2545,2.2609,2.2512,2.2508,2.2504,2.2436,2.2426,2.2417,0,0,0,0,0,2.2507,2.2465,2.2486,2.2485,2.249,2.248,2.2481,2.2513,2.2542,2.2524,2.2542,2.2575,2.2549,2.2574,2.2572,2.2541,2.2514,2.2509,2.2504,2.2441,2.2428,2.2417,0,0,0,0,0,0,2.2436,2.2469,2.2492,2.2457,2.2465,2.2491,2.2469,2.2498,2.2498,2.2504,2.2543,2.2546,2.2516,2.2527,2.2553,2.2495,2.2537,2.2531,2.2489,2.2477,2.2468,2.2465,2.2609,0,0,0,0,0,2.2416,2.2406,2.2435,2.2402,2.2405,2.2436,2.2433,2.2457,2.2467,2.2471,2.2487,2.2495,2.2489,2.2484,2.248,2.2439,2.2444,2.2417,2.2407,2.2399,2.2393,2.2373,2.2361,2.2485,2.2485,2.2485,0,0,2.2375,2.2392,2.2383,2.2388,2.2397,2.2385,2.2439,2.2423,2.2415,2.2468,2.2446,2.2458,2.247,2.2437,2.2423,2.2444,2.236,2.2393,2.2386,2.2385,2.2366,2.2354,2.2344,2.2482,2.2483,2.2483,0,0,2.2295,2.2307,2.228,2.2289,2.2303,2.2324,2.2318,2.234,2.2351,2.2329,2.2369,2.236,2.2348,2.2355,2.2357,2.2281,2.231,2.2278,2.2226,2.2206,2.2196,2.2187,2.216,2.2149,2.2273,2.2273,2.2272,0,2.2242,2.2226,2.2262,2.2245,2.2246,2.2295,2.2268,2.2275,2.2286,2.2286,2.231,2.2298,2.2309,2.2278,2.226,2.226,2.2253,2.2275,2.2194,2.2186,2.2179,2.2153,2.2142,2.2269,2.2269,2.2269,2.227,0,2.216,2.2148,2.2125,2.2136,2.2135,2.2112,2.2146,2.214,2.2164,2.2183,2.2161,2.2177,2.2177,2.2172,2.2195,2.2144,2.2157,2.2187,2.223,2.2162,2.2138,2.2129,2.2263,2.2264,2.2265,2.2266,0,0,2.2033,2.2066,2.2057,2.2062,2.2083,2.2074,2.2055,2.2056,2.205,2.2057,2.2041,2.2031,2.206,2.2062,2.2087,2.2069,2.2007,2.2102,2.2102,2.2083,2.1952,2.1928,2.1916,2.2028,2.2027,2.2025,2.1951,0,2.1956,2.1925,2.1958,2.192,2.1909,2.1957,2.194,2.1951,2.1968,2.1962,2.1982,2.1974,2.2012,2.2014,2.1999,2.2018,2.1981,2.2024,2.2013,2.2012,2.2007,2.1904,2.1879,2.1808,2.1942,2.1941,2.1939,0,2.1861,2.1865,2.1826,2.1849,2.1846,2.1831,2.1835,2.1829,2.1842,2.1856,2.1859,2.189,2.1873,2.1915,2.1892,2.192,2.1918,2.1927,2.1925,2.1924,2.1971,2.1899,2.1786,2.1775,2.1925,2.1926,2.1927,0,2.1772,2.1767,2.1743,2.1747,2.1774,2.1762,2.1772,2.1788,2.1787,2.179,2.179,2.1792,2.1792,2.1793,2.1823,2.1851,2.1796,2.1841,2.1806,2.1805,2.1791,2.1791,2.1675,2.1791,2.1792,2.1792,2.1792,0,2.1681,2.1655,2.1703,2.1688,2.1661,2.17,2.1671,2.1687,2.1701,2.1689,2.1731,2.172,2.1762,2.1755,2.1779,2.1756,2.1756,2.1766,2.1773,2.1762,2.176,2.176,2.1765,2.1789,2.179,2.179,2.1791,0,2.1575,2.1606,2.1584,2.1612,2.1619,2.1597,2.1621,2.1608,2.163,2.1615,2.1614,2.1647,2.1642,2.1673,2.1672,2.1689,2.1653,2.1669,2.1649,2.1653,2.1617,2.1619,2.1495,2.148,2.1607,2.1606,2.1605,0,2.1515,2.1496,2.1523,2.1519,2.1528,2.1521,2.1521,2.1559,2.1557,2.1571,2.1557,2.1555,2.1555,2.1544,2.1568,2.1568,2.1583,2.1539,2.1583,2.1573,2.1581,2.1582,2.158,2.1529,2.1528,2.1527,2.1526,0,2.1404,2.1421,2.1419,2.1423,2.1422,2.1426,2.1433,2.1428,2.147,2.1465,2.146,2.1461,2.1461,2.1458,2.1464,2.1475,2.1507,2.1512,2.1504,2.1492,2.1481,2.1486,2.1623,2.1514,2.1515,2.1516,2.1517,2.1517,2.1319,2.1304,2.1322,2.1318,2.1328,2.1335,2.1324,2.1345,2.1342,2.1346,2.1369,2.136,2.1375,2.1386,2.1394,2.1388,2.1408,2.1396,2.1393,2.139,2.1383,2.1483,2.1389,2.1389,2.1389,2.139,2.139,0,2.1209,2.1223,2.122,2.123,2.1227,2.126,2.127,2.1266,2.1257,2.1269,2.1269,2.1264,2.1262,2.1287,2.1288,2.1278,2.1293,2.1277,2.1278,2.128,2.1365,2.1371,2.1265,2.1265,2.1265,2.1265,2.1265,2.1265,2.1152,2.113,2.1149,2.1133,2.1147,2.1139,2.1142,2.1148,2.1158,2.115,2.115,2.1166,2.1183,2.1187,2.1186,2.1194,2.1192,2.1171,2.1183,2.1261,2.1274,2.1285,2.1291,2.117,2.117,2.1099,2.1098,2.1098]}]]